• Join FlightAware (Why Join?)
  • Login
  • US Flag 
11:15AM EST


 

Airport Tracker/Info


-or-


 

Live Flight TrackerFlight Track Log ✈ SWA561 ✈ 17-Apr-2013 ✈ KOAK - KLAX

Flight Track Log - Related Links

Times and Time Zones

All times are in EDT time to prevent confusion due to time zone crossing. See the SWA561 flight status page for this flight to view local times or setup timezone preferences in your user account.

Time Position Orientation Groundspeed Altitude Reporting Facility
EDT Latitude Longitude Course Direction KTS MPH feet Rate Location/Type
08:35PM 37.7194 -122.2425 294° West 112 129 1,400  Level Oakland Center
08:36PM 37.7400 -122.3017 294° West 190 219 4,000 3,300 Climbing Oakland Center
08:37PM 37.7272 -122.3717 257° West 232 267 8,200 3,300 Climbing Oakland Center
08:38PM 37.6469 -122.3936 192° South 293 337 10,800 3,180 Climbing Oakland Center
08:39PM 37.5494 -122.3781 173° South 359 413 14,800 3,420 Climbing Oakland Center
08:40PM 37.4750 -122.2844 135° Southeast 379 436 17,900 3,240 Climbing Oakland Center
08:41PM 37.3803 -122.1614 134° Southeast 407 468 21,500 3,060 Climbing Oakland Center
08:42PM 37.2972 -122.0547 134° Southeast 425 489 24,200 2,880 Climbing Oakland Center
08:43PM 37.2119 -121.9431 134° Southeast 440 506 27,400 2,700 Climbing Oakland Center
08:44PM 37.1286 -121.8331 134° Southeast 438 504 29,800 2,160 Climbing Oakland Center
08:45PM 37.0406 -121.7219 135° Southeast 447 514 31,800 1,800 Climbing Oakland Center
08:46PM 36.9481 -121.6069 135° Southeast 463 533 33,500 1,860 Climbing Oakland Center
08:47PM 36.8572 -121.4883 134° Southeast 470 541 35,700 1,800 Climbing Oakland Center
08:48PM 36.7567 -121.3592 134° Southeast 469 540 37,200 1,260 Climbing Oakland Center
08:49PM 36.6639 -121.2425 135° Southeast 474 545 38,300 840 Climbing Oakland Center
08:50PM 36.5692 -121.1225 134° Southeast 482 555 39,000 300 Climbing Oakland Center
08:51PM 36.4769 -121.0042 134° Southeast 479 551 39,000  Level Oakland Center
08:52PM 36.3839 -120.8878 135° Southeast 475 547 39,000  Level Oakland Center
08:53PM 36.3131 -120.7539 123° Southeast 469 540 39,000  Level Oakland Center
08:55PM 36.2717 -120.6003 108° East 468 539 39,000  Level Oakland Center
08:56PM 36.2308 -120.4442 108° East 475 547 39,000  Level Oakland Center
08:57PM 36.1875 -120.2897 109° East 473 544 39,000  Level Oakland Center
08:58PM 36.0725 -120.1553 137° Southeast 478 550 39,000  Level Oakland Center
08:59PM 35.9556 -120.0811 153° Southeast 471 542 39,000  Level Oakland Center
09:00PM 35.8297 -120.0392 165° South 466 536 39,000  Level Oakland Center
09:01PM 35.7033 -119.9972 165° South 467 537 39,000  Level Oakland Center
09:02PM 35.5842 -119.9253 154° Southeast 473 544 39,000 -360 Level Oakland Center
09:03PM 35.4742 -119.8289 144° Southeast 479 551 38,300 -840 Descending Oakland Center
09:04PM 35.3639 -119.7342 145° Southeast 480 552 37,300 -1,320 Descending Oakland Center
09:05PM 35.2483 -119.6517 150° Southeast 474 545 35,700 -1,920 Descending Oakland Center
09:06PM 35.1222 -119.6353 174° South 454 522 33,400 -2,100 Descending Oakland Center
09:07PM 35.0086 -119.5881 161° South 448 516 31,500 -2,340 Descending Oakland Center
09:08PM 34.8925 -119.4631 139° Southeast 463 533 28,200 -2,880 Descending Los Angeles Center
09:09PM 34.7767 -119.3378 138° Southeast 465 535 25,100 -2,820 Descending Los Angeles Center
09:10PM 34.6778 -119.2342 139° Southeast 468 539 22,500 -2,220 Descending Los Angeles Center
09:11PM 34.5839 -119.1367 139° Southeast 451 519 20,600 -1,980 Descending Los Angeles Center
09:12PM 34.4944 -119.0408 139° Southeast 426 490 18,500 -2,040 Descending Los Angeles Center
09:13PM 34.4136 -118.9464 136° Southeast 404 465 16,500 -1,980 Descending Los Angeles Center
09:14PM 34.3275 -118.8692 143° Southeast 388 447 14,500 -1,920 Descending Los Angeles Center
09:15PM 34.2258 -118.8325 163° South 379 436 12,600 -1,500 Descending Los Angeles Center
09:16PM 34.1117 -118.7911 163° South 357 411 11,500 -1,020 Descending Los Angeles Center
09:17PM 34.0372 -118.7311 146° Southeast 323 372 10,500 -780 Descending Los Angeles Center
09:18PM 34.0275 -118.6339 97° East 290 334 10,000 -780 Descending Los Angeles Center
09:19PM 34.0178 -118.5369 97° East 290 334 9,000 -1,080 Descending Los Angeles Center
09:20PM 34.0108 -118.4492 95° East 268 308 7,800 -1,740 Descending Los Angeles Center
09:21PM 34.0239 -118.3650 79° East 259 298 5,500 -1,620 Descending Los Angeles Center
09:23PM 34.0344 -118.2819 81° East 253 291 4,200 -1,080 Descending Los Angeles Center
09:24PM 33.9997 -118.2378 133° Southeast 211 243 3,100 -1,140 Descending Los Angeles Center
09:25PM 33.9678 -118.2936 235° Southwest 187 215 1,900 -1,020 Descending Los Angeles Center
09:26PM 33.9586 -118.3453 258° West 171 197 1,100 -780 Descending Los Angeles Center
09:27PM 33.9550 -118.3853 264° West 140 161 400 -420 Descending Los Angeles Center
09:28PM 33.9494 -118.4208 259° West 132 152 200 -180 Descending Los Angeles Center
09:30PM 33.9425 -118.4081 231° Southwest  Level Estimated